User: anonymous   Login
Location: Unspecified
(0.0000°N, 0.0000°E)
Time: 21:40:48
(UTC+00:00)
Language:

RS-8 - Orbit

View from above orbital plane
View from above orbital plane
View from above satellite
View from above satellite

Ground track
Ground track

The orbit data is extracted from the following two-line orbital elements,

1 13002U 81120F   22228.47458619  .00000042  00000-0  33766-3 0  9992
2 13002  82.9645 353.6531 0052732  91.7353 337.3526 12.13809073801524
Epoch (UTC): 16 August 2022 11:23:24
Eccentricity: 0.0052732
inclination: 82.9645°
perigee height: 1577 km
apogee height: 1662 km
right ascension of ascending node: 353.6531°
argument of perigee: 91.7353°
revolutions per day: 12.13809073
mean anomaly at epoch: 337.3526°
orbit number at epoch: 80152

The dashed part of the orbit path shows where the satellite is in the earth's shadow,  

DLR